Home > Weather > Santa Clara > Past weeks

Flag for USA Past Weather in Santa Clara, California, USA — Yesterday and Last 2 Weeks

Now
78 °F

Passing clouds.


Feels Like: 79 °F
Forecast: 59 / 75 °F
Wind: 12 mph from Northwest

Location: San Jose International Airport

Current Time: Aug 26, 2016 at 4:25:15 PM

Latest Report: Aug 26, 2016 at 3:53 PM


Visibility: 10 mi

Pressure: 29.90 "Hg

Humidity: 48%

Dew Point: 57 °F

Location of Santa ClaraLocation

Past Weather in Santa Clara — Graph

°F

Santa Clara Temperature Yesterday

Maximum temperature yesterday: 75 °F (at 1:53 PM)
Minimum temperature yesterday: 60 °F (at 12:53 AM)
Average temperature yesterday: 66 °F

High & Low Weather Summary for the Past Weeks

 TemperatureHumidityPressure
High87 °F (Aug 13, 3:53 PM)90% (Aug 13, 6:53 AM)30.11 "Hg (Aug 13, 6:53 AM)
Low59 °F (Aug 19, 4:53 AM)26% (Aug 13, 5:53 PM)29.78 "Hg (Aug 17, 5:53 PM)
Average67 °F68%29.93 "Hg
* Reported Aug 11 2:53 PM — Aug 26 2:53 PM, Santa Clara, Weather by CustomWeather, © 2016

Note: Actual official high and low records may vary slightly from our data, if they occured in-between our weather recording intervals... More about our weather records

Advertising

Santa Clara Weather History for the Previous 24 Hours

Scroll right to see more
 ConditionsComfort  
Time TempWeatherWind HumidityBarometerVisibility
2:53 PM
Fri, Aug 26
79 °FPassing clouds.12 mph47%29.91 "Hg10 mi
1:53 PM78 °FScattered clouds.5 mph45%29.92 "Hg10 mi
12:53 PM76 °FScattered clouds.7 mph48%29.93 "Hg10 mi
11:53 AM72 °FPassing clouds.9 mph53%29.93 "Hg10 mi
10:53 AM67 °FPassing clouds.3 mph61%29.94 "Hg10 mi
9:53 AM65 °FBroken clouds.10 mph66%29.94 "Hg10 mi
8:53 AM62 °FMostly cloudy.8 mph73%29.95 "Hg10 mi
7:53 AM61 °FMostly cloudy.9 mph75%29.93 "Hg10 mi
6:53 AM60 °FMostly cloudy.9 mph78%29.91 "Hg10 mi
5:53 AM60 °FMostly cloudy.9 mph80%29.90 "Hg6 mi
4:53 AM60 °FOvercast.9 mph80%29.90 "Hg10 mi
3:53 AM60 °FOvercast.9 mph83%29.89 "Hg10 mi
2:53 AM60 °FOvercast.8 mph83%29.88 "Hg10 mi
1:53 AM60 °FClear.8 mph80%29.88 "Hg10 mi
12:53 AM60 °FClear.6 mph80%29.89 "Hg10 mi
11:53 PM
Thu, Aug 25
62 °FPassing clouds.No wind78%29.90 "Hg10 mi
10:53 PM62 °FPassing clouds.5 mph78%29.91 "Hg10 mi
9:53 PM62 °FPassing clouds.7 mph78%29.91 "Hg10 mi
8:53 PM63 °FPassing clouds.9 mph75%29.90 "Hg10 mi
7:53 PM65 °FPassing clouds.14 mph70%29.88 "Hg10 mi
6:53 PM69 °FPassing clouds.13 mph63%29.86 "Hg10 mi
5:53 PM72 °FPassing clouds.12 mph57%29.86 "Hg10 mi
4:53 PM74 °FPassing clouds.13 mph53%29.86 "Hg10 mi
Weather by CustomWeather, © 2016

See weather overviewHow to use our weather pages